Location: Charlotte
(35.2270°N, 80.8430°W)
Time: 07:44:26
(UTC-04:00)

Daily predictions for brighter satellites

Satellite Brightness Start Highest point End
(mag) Time Altitude Azimuth Time Altitude Azimuth Time Altitude Azimuth
ATLAS CENTAUR R/B 3.2 19:25:13 10° SW 19:29:17 85° NW 19:41:44 10° NE
CZ-4 R/B 4.3 19:28:21 10° SSW 19:31:24 22° W 19:34:29 10° NW
FREGAT/IRIS 4.1 19:29:39 10° ESE 19:31:54 19° ENE 19:34:11 10° NNE
Cosmos 1544 4.4 19:29:35 10° SE 19:32:28 21° E 19:35:21 10° NE
USA 215 3.8 19:26:49 10° ENE 19:32:46 37° SE 19:38:41 10° SSW
Cosmos 1484 Rocket 2.7 19:29:56 10° SSE 19:33:43 68° ENE 19:37:38 10° N
Cosmos 724 4.3 19:29:51 10° SSW 19:35:44 79° ESE 19:41:47 10° NNE
SAR-Lupe-4 4.0 19:32:56 10° SE 19:36:16 39° ENE 19:39:38 10° N
OAO 3 Rocket 3.2 19:37:28 10° W 19:42:12 86° S 19:46:49 11° E
Cosmos 1758 3.6 19:38:29 10° SSE 19:42:25 48° E 19:46:23 10° NNE
Cosmos 1464 Rocket 4.0 19:36:55 10° S 19:43:09 77° E 19:49:19 10° N
Cosmos 2034 Rocket 4.1 19:37:17 10° SSE 19:43:21 56° E 19:49:31 10° NNE
SL-16 R/B 3.7 19:41:36 10° SW 19:46:56 41° WNW 19:52:18 10° N
Cosmos 1378 3.5 19:46:59 10° NNW 19:50:41 69° W 19:54:23 10° S
Cosmos 1408 Rocket 3.5 19:47:06 10° N 19:51:24 63° E 19:55:39 10° SSE
Meteor 1-21 Rocket 4.4 19:51:40 10° N 19:57:02 49° ENE 20:02:22 10° SSE
Helios 1A 3.8 19:55:29 10° SE 19:59:12 31° ENE 20:02:55 10° N
Atlas Centaur 2 4.4 19:59:46 10° W 20:07:00 32° SSW 20:14:05 10° SSE
Meteor 1-28 Rocket 3.5 20:05:47 10° N 20:09:29 67° WNW 20:13:09 10° SSW
Meteor 1-29 3.2 20:07:48 10° NNE 20:11:10 44° E 20:14:29 10° S
GPS 2-04 Rocket1 2.3 20:09:56 10° W 20:13:23 86° S 20:15:05 29° E
NOAA 12 4.1 20:09:39 10° SSE 20:14:55 86° WSW 20:20:14 10° NNW
SEDSat Delta rocket 4.3 20:08:37 10° W 20:15:00 58° S 20:19:42 20° ESE
H-2A R/B 4.1 20:17:06 21° ENE 20:17:06 21° ENE 20:19:38 10° NNE
ASTEX 1 3.7 20:14:52 10° NNE 20:19:29 40° E 20:24:03 10° SSE
Resurs 1-3 3.8 20:15:33 10° SSE 20:19:46 49° ENE 20:24:00 10° N
Cosmos 1805 4.2 20:16:40 10° SSW 20:20:29 50° W 20:24:20 10° N
Cosmos 1943 Rocket 3.9 20:18:10 10° NNE 20:21:07 14° NE 20:21:11 14° NE
Cosmos 1743 Rocket 3.5 20:17:49 10° N 20:22:13 65° E 20:26:34 10° SSE
Cosmos 1452 Rocket 4.0 20:17:07 10° NNW 20:22:18 63° WSW 20:27:28 10° S
ALOS 2.7 20:20:14 22° SE 20:22:43 38° ENE 20:27:01 10° N
Cosmos 2251 Rocket 4.2 20:20:12 10° SSE 20:24:42 30° E 20:29:14 10° NE
Cosmos 1943 3.1 20:21:44 10° S 20:27:18 66° ESE 20:32:52 10° NNE
Resurs 01 Rocket 1.5 20:23:25 10° SSE 20:27:51 82° ENE 20:32:19 10° N
Cosmos 2369 Rocket 2.7 20:23:54 10° N 20:29:09 38° ENE 20:31:02 30° ESE
CENTAUR R/B 2.4 20:23:48 10° SSW 20:29:42 83° ESE 20:36:21 10° NNE
Helios 1B rocket 2.6 20:27:12 10° N 20:31:19 76° WNW 20:35:25 10° SSW
Gbstr 26 Del rocket 3.5 20:27:58 10° WSW 20:32:13 66° NW 20:36:27 15° NE
Cosmos 1953 4.1 20:30:34 10° SW 20:34:10 33° W 20:37:48 10° NNW
ISS -1.1 20:33:04 10° W 20:35:44 23° NNW 20:37:47 14° NNE
Cosmos 1733 3.0 20:34:57 10° S 20:38:48 75° E 20:42:39 10° N
Cosmos 1420 Rocket 4.1 20:36:11 10° NNW 20:41:30 79° WSW 20:46:48 10° S
Cosmos 1470 3.0 20:42:07 10° SSW 20:45:58 69° W 20:49:50 10° N
BREEZE-M TANK 4.2 20:41:05 10° WNW 20:46:44 28° SW 20:48:39 17° S
Cosmos 2279 Rocket 4.4 20:48:01 37° E 20:48:01 37° E 20:53:20 10° NNE
Nadezhda 4 Rocket 4.2 20:43:38 10° N 20:49:52 73° W 20:56:00 10° S
Cosmos 1674 2.8 20:46:05 10° N 20:49:57 76° W 20:51:27 36° S
Spot 2 Rocket 4.1 20:46:51 10° S 20:51:47 56° W 20:56:44 10° NNW
GP-B 3.5 20:49:35 10° N 20:52:56 45° NE 20:52:56 45° NE
ASTRO E2 4.4 20:53:40 10° WSW 20:56:53 23° SSW 20:57:04 23° SSW
Cosmos 1092 Rocket 3.9 20:53:41 10° N 20:59:54 84° W 21:06:02 10° S
Cosmos 2151 3.9 20:58:57 10° N 21:01:37 37° NNE 21:01:37 37° NNE
Cosmos 2142 Rocket 4.5 20:59:09 10° S 21:05:31 89° W 21:11:57 10° N
Meteor 1-16 Rocket 3.9 21:04:26 10° S 21:09:44 85° E 21:15:04 10° N
Cosmos 1655 Rocket 4.0 21:04:10 10° N 21:10:10 57° ENE 21:10:10 57° ENE
Cosmos 2026 Rocket 3.8 21:04:49 10° N 21:10:55 65° E 21:11:21 63° ESE
Cosmos 1634 Rocket 4.1 21:06:19 10° SSW 21:12:32 73° W 21:18:45 10° N
USA 215 3.8 21:09:30 10° NE 21:15:51 55° NW 21:22:10 10° WSW
OAO 3 Rocket 4.2 21:21:02 10° W 21:24:38 41° SW 21:24:38 41° SW
Meteor 1-11 4.2 21:20:01 10° N 21:25:15 72° NNE 21:25:15 72° NNE
Cosmos 1943 Rocket 3.7 21:59:52 10° NNW 22:02:43 31° NNW 22:02:43 31° NNW
Cosmos 2369 Rocket 4.0 22:08:22 10° NW 22:12:52 25° W 22:12:52 25° W
